Wind_Speed
36 37 39 40 41 42 43 44 46 47 48 49 50 51 52 54 55 56 57 58 59 60 60 61 62 63 64 64 65 66 65 66 66 66 65 65 65 64
39 40 41 42 43 45 46 47 48 49 51 52 53 54 55 55 56 58 59 60 60 61 61 61 61 62 62 62 62 62 62 62 61 61 60 59 59 59
40 41 43 44 45 47 48 49 51 52 53 53 54 56 57 57 57 58 59 59 59 58 58 59 58 58 58 58 58 57 57 57 57 56 55 55 55 55
42 43 44 45 46 47 48 49 51 52 52 53 54 56 57 58 58 58 58 57 57 57 57 56 54 53 54 54 54 53 52 51 50 50 50 50 49 49
42 43 44 44 44 45 46 47 48 49 50 51 52 52 53 53 53 54 54 53 53 52 52 52 50 49 48 48 47 46 46 45 45 45 44 44 44 45
42 42 42 42 43 43 44 45 45 46 46 46 46 46 47 48 48 47 46 46 46 45 44 44 43 42 41 41 40 40 39 39 38 38 38 39 40 41
39 39 40 40 40 40 40 40 40 40 40 40 39 39 39 38 38 38 37 37 36 36 37 36 36 37 36 35 35 35 34 34 34 34 35 36 37 38
36 35 35 35 35 35 35 34 34 34 34 33 33 32 31 31 31 30 30 30 30 30 30 30 30 30 29 29 29 29 29 29 29 30 31 33 34 35
30 30 30 30 30 29 29 30 29 29 28 27 26 26 25 25 25 25 25 25 24 25 25 25 25 24 24 24 24 24 24 25 26 27 29 30 31 32
27 26 26 26 25 25 25 25 25 24 23 22 22 22 22 22 21 21 21 21 21 20 20 20 20 19 19 19 19 20 21 22 24 25 28 29 30 29
22 22 21 21 21 21 21 21 21 20 19 19 19 18 18 17 17 17 16 16 16 16 15 16 15 15 16 16 17 18 19 20 22 25 26 27 27 27
17 17 16 17 17 18 18 18 18 17 17 16 16 15 15 14 14 14 14 14 13 13 13 13 12 13 14 14 15 16 18 20 22 23 25 25 26 26
15 15 15 16 17 17 17 16 16 16 15 15 14 14 14 13 13 13 13 12 12 11 11 10 10 12 12 13 14 15 18 20 21 22 23 24 24 25
13 14 15 15 16 16 16 15 15 15 14 14 14 14 14 13 13 13 12 12 11 10 9 9 10 11 12 13 14 17 18 19 20 21 23 23 24 25
13 13 14 15 15 15 15 15 15 14 14 14 14 14 13 13 12 12 12 11 11 10 9 9 10 11 12 13 15 17 18 19 20 21 22 23 24 25
12 13 14 15 15 15 15 15 14 14 14 14 14 13 12 12 11 11 10 10 10 9 9 9 10 11 12 13 15 17 18 19 20 22 23 23 24 25
13 13 14 15 15 15 15 15 14 14 14 13 12 12 12 11 10 10 9 9 9 9 9 9 10 11 12 14 15 17 18 19 21 22 23 24 25 25
12 13 14 14 14 15 15 14 14 14 13 12 12 11 11 10 9 8 8 9 9 9 9 10 11 12 13 14 16 17 18 19 21 22 23 24 25 26
12 13 14 14 14 14 14 13 13 12 12 11 11 10 10 9 8 8 8 8 9 9 9 10 11 12 13 14 16 17 18 19 21 22 23 24 25 27
12 13 13 14 14 14 13 13 12 11 11 10 10 10 9 8 7 7 7 8 8 9 9 10 11 12 13 14 16 17 18 20 21 22 24 25 26 27
12 13 13 13 13 13 12 12 11 10 10 9 9 8 8 7 7 6 7 7 8 9 10 10 11 12 13 14 16 17 19 20 21 23 25 26 28 29
12 13 13 12 12 12 12 11 11 10 9 8 8 7 7 7 7 7 7 8 9 9 10 11 11 12 13 15 16 18 19 20 22 23 25 26 27 28
12 12 12 12 12 11 11 11 10 9 8 8 7 7 6 7 7 7 8 9 9 10 11 11 12 13 14 16 17 18 19 20 22 23 24 25 26 27
Wind_Direction
285 284 284 284 284 284 283 283 283 282 281 280 279 278 277 276 276 276 276 276 276 276 276 276 276 276 277 278 279 280 280 282 282 282 282 283 283 283
287 287 286 285 285 285 284 284 283 282 281 281 279 278 278 277 277 276 276 277 277 276 277 277 277 277 278 279 280 281 283 284 285 285 286 286 286 285
288 287 286 286 286 285 285 284 284 283 282 280 279 278 277 277 276 276 276 276 276 277 277 278 278 279 279 280 282 285 286 286 287 288 289 289 289 288
289 289 288 288 287 286 286 285 284 283 282 281 280 279 278 278 277 276 276 276 276 278 279 279 280 281 282 283 285 287 288 289 290 291 292 292 291 291
290 290 289 289 288 288 287 287 285 284 284 283 282 281 281 280 279 278 278 279 279 279 280 280 282 283 284 286 288 290 292 293 294 294 295 295 294 293
291 291 290 290 289 289 289 288 288 287 287 286 285 284 283 283 282 282 282 282 282 282 282 282 283 284 287 290 292 294 295 296 297 298 298 299 298 297
291 291 290 291 291 292 292 292 292 292 290 290 290 289 288 287 287 287 287 286 286 285 285 286 287 289 292 293 295 297 299 300 301 302 302 303 303 302
292 292 294 295 295 296 297 297 297 296 295 295 295 294 294 293 293 293 291 289 289 290 290 291 293 295 297 299 300 302 302 303 305 307 308 309 309 308
295 297 299 300 300 301 302 303 304 304 304 303 302 300 301 299 298 297 296 296 296 296 296 299 300 301 302 304 305 306 307 308 310 312 314 315 316 315
301 302 304 304 305 307 309 310 311 312 313 313 312 309 307 306 304 302 301 302 302 302 302 304 304 305 307 309 311 312 315 316 317 319 320 320 320 320
308 311 313 313 315 318 320 321 320 320 319 320 319 319 318 317 316 314 313 312 311 309 309 311 312 313 316 318 320 322 324 325 325 325 326 327 326 325
320 323 326 329 331 332 332 332 331 331 331 331 331 333 333 333 329 327 326 323 321 320 320 321 321 324 326 328 330 331 332 332 332 333 334 335 335 333
327 330 332 335 337 338 337 337 338 339 340 341 341 341 341 341 341 340 337 333 331 331 332 333 335 338 341 342 342 341 340 340 340 342 343 344 345 345
328 330 333 335 337 339 340 341 342 343 344 345 345 345 345 345 345 346 346 345 345 346 347 349 351 352 352 352 350 350 350 350 350 352 353 353 354 356
331 333 336 337 338 340 341 341 342 343 345 344 343 345 346 347 348 349 351 353 354 354 357 360 0 0 359 358 357 357 358 358 359 0 1 0 2 3
334 336 337 337 337 338 339 340 341 342 343 343 344 346 349 350 350 351 354 357 1 6 8 8 6 6 7 6 5 6 7 7 7 7 8 8 9 11
335 336 337 338 338 339 340 341 341 342 343 345 347 350 351 352 354 356 1 5 9 16 21 21 18 16 14 13 13 13 14 14 14 15 16 16 17 18
336 337 338 339 340 341 342 343 344 344 346 348 349 350 351 354 358 3 9 15 22 28 32 29 26 24 23 21 19 19 21 21 22 22 23 24 25 26
338 339 340 342 344 345 345 344 345 346 348 350 352 354 356 359 4 11 17 25 32 36 37 35 32 30 28 27 27 27 27 28 29 30 31 32 33 34
341 342 343 343 344 344 345 346 347 349 350 352 354 358 3 6 12 20 29 36 41 43 43 42 40 36 35 34 34 35 36 37 38 40 40 41 41 41
344 345 346 346 346 348 349 350 352 353 355 356 359 4 11 18 25 35 43 47 50 51 50 48 46 43 42 42 43 43 44 45 46 46 45 45 45 44
346 348 350 350 351 352 353 355 355 357 -0 3 7 15 24 33 41 49 54 57 59 59 57 55 53 52 51 51 51 51 51 52 52 50 48 47 46 46
350 353 354 354 355 357 359 1 3 7 11 16 22 31 40 46 52 59 62 64 64 64 64 63 61 60 60 59 58 58 57 56 53 51 48 47 46 46
Height
5786 5784 5783 5780 5778 5776 5774 5771 5769 5765 5762 5760 5757 5754 5751 5748 5745 5741 5738 5735 5731 5728 5725 5722 5718 5714 5710 5705 5702 5697 5694 5690 5686 5682 5678 5674 5671 5667
5776 5774 5772 5769 5766 5764 5761 5758 5755 5752 5748 5745 5742 5739 5735 5732 5729 5725 5722 5719 5716 5712 5709 5705 5702 5698 5694 5690 5685 5681 5677 5673 5670 5666 5661 5657 5653 5649
5764 5762 5760 5757 5754 5751 5748 5744 5741 5737 5733 5730 5726 5723 5719 5716 5712 5709 5705 5702 5699 5696 5692 5689 5685 5682 5678 5674 5670 5666 5662 5658 5654 5650 5646 5642 5638 5634
5753 5750 5747 5744 5741 5737 5734 5730 5726 5722 5718 5714 5710 5706 5702 5698 5695 5692 5689 5686 5683 5679 5676 5673 5670 5667 5663 5660 5656 5653 5649 5645 5641 5636 5632 5628 5624 5619
5741 5738 5734 5731 5728 5724 5720 5716 5711 5707 5703 5698 5694 5689 5685 5682 5678 5675 5673 5670 5667 5664 5662 5660 5657 5654 5651 5648 5644 5640 5637 5633 5629 5625 5620 5615 5611 5606
5729 5725 5722 5718 5715 5711 5706 5702 5697 5693 5688 5684 5679 5675 5671 5667 5664 5661 5658 5656 5654 5651 5649 5647 5645 5642 5640 5637 5634 5630 5626 5622 5618 5614 5609 5604 5599 5594
5717 5714 5710 5706 5702 5698 5694 5689 5684 5680 5675 5670 5666 5662 5658 5654 5652 5649 5647 5645 5643 5641 5639 5637 5635 5633 5630 5627 5624 5621 5617 5613 5609 5604 5600 5595 5589 5584
5706 5703 5699 5695 5691 5687 5683 5678 5674 5669 5664 5660 5656 5652 5648 5645 5643 5640 5638 5636 5635 5633 5630 5628 5626 5624 5622 5619 5616 5613 5609 5606 5601 5597 5592 5587 5581 5575
5696 5692 5689 5685 5681 5677 5673 5669 5665 5660 5656 5652 5647 5644 5641 5638 5636 5634 5632 5630 5628 5626 5624 5622 5620 5618 5616 5613 5610 5606 5603 5599 5595 5590 5585 5579 5573 5567
5687 5684 5681 5677 5673 5670 5666 5662 5657 5653 5649 5645 5642 5638 5636 5633 5631 5629 5626 5624 5623 5621 5619 5617 5615 5613 5611 5608 5605 5601 5598 5594 5589 5585 5579 5574 5567 5561
5680 5677 5674 5670 5667 5663 5660 5656 5652 5649 5645 5641 5638 5635 5632 5629 5627 5625 5622 5621 5619 5617 5615 5613 5611 5609 5606 5604 5601 5597 5594 5590 5585 5580 5575 5568 5562 5556
5676 5672 5669 5666 5663 5659 5656 5653 5649 5646 5642 5638 5635 5632 5629 5627 5624 5622 5620 5618 5616 5614 5612 5610 5608 5606 5604 5601 5598 5594 5590 5586 5582 5576 5571 5564 5558 5551
5672 5669 5666 5663 5660 5657 5654 5651 5647 5644 5640 5637 5634 5631 5628 5625 5623 5620 5618 5616 5614 5612 5610 5608 5606 5604 5601 5598 5596 5592 5588 5584 5579 5573 5568 5562 5555 5549
5669 5667 5664 5661 5658 5655 5652 5649 5646 5642 5639 5636 5633 5630 5627 5625 5622 5619 5617 5615 5613 5611 5608 5607 5605 5602 5600 5597 5594 5591 5586 5582 5577 5572 5566 5560 5554 5547
5667 5664 5662 5659 5656 5653 5650 5647 5644 5641 5638 5635 5632 5629 5627 5624 5621 5619 5617 5614 5612 5610 5608 5606 5604 5602 5599 5597 5593 5590 5586 5581 5576 5571 5565 5559 5553 5547
5665 5662 5660 5657 5654 5651 5648 5646 5643 5640 5637 5634 5631 5628 5626 5623 5621 5618 5616 5614 5612 5610 5608 5606 5604 5602 5599 5596 5593 5589 5585 5581 5576 5571 5566 5560 5554 5548
5663 5661 5658 5655 5652 5649 5646 5644 5641 5638 5635 5633 5630 5628 5625 5623 5620 5618 5616 5614 5612 5610 5608 5606 5604 5602 5599 5597 5594 5590 5586 5582 5577 5572 5567 5561 5555 5549
5661 5659 5656 5653 5650 5648 5645 5642 5639 5637 5634 5631 5629 5627 5625 5622 5620 5618 5616 5614 5612 5610 5609 5607 5605 5603 5601 5598 5595 5591 5587 5583 5579 5574 5569 5564 5558 5553
5660 5657 5654 5652 5649 5646 5643 5641 5638 5635 5633 5631 5628 5626 5624 5622 5620 5618 5617 5615 5613 5611 5610 5608 5606 5604 5602 5599 5596 5593 5589 5585 5581 5577 5572 5567 5562 5557
5658 5656 5653 5650 5648 5645 5642 5640 5637 5635 5632 5630 5628 5626 5624 5622 5620 5619 5617 5616 5614 5612 5611 5609 5607 5605 5603 5601 5598 5595 5592 5588 5584 5580 5576 5572 5567 5562
5657 5654 5652 5649 5646 5644 5641 5639 5636 5634 5632 5629 5627 5626 5624 5622 5620 5619 5618 5616 5615 5614 5612 5611 5609 5607 5605 5603 5600 5598 5595 5591 5588 5584 5580 5576 5572 5567
5656 5653 5651 5648 5645 5643 5640 5638 5636 5633 5631 5629 5627 5626 5624 5623 5621 5620 5619 5618 5616 5615 5614 5613 5611 5609 5607 5605 5603 5601 5598 5595 5592 5588 5585 5581 5577 5573
5655 5652 5650 5647 5645 5642 5640 5638 5635 5633 5631 5629 5627 5626 5625 5623 5622 5621 5620 5619 5618 5617 5616 5614 5613 5612 5610 5608 5606 5604 5602 5599 5596 5593 5590 5586 5583 5579